User: anonymous
Location: Bonny Doon Airfield
(37.0704°N, 122.1252°W)
Time: 13:19:00
(UTC-07:00)
Language:

BREEZE M DEB (TANK) - Orbit

View from above orbital plane
View from above orbital plane
View from above satellite
View from above satellite

Ground track
Ground track

The orbit data is extracted from the following two-line orbital elements,

1 33437U 08057B   14272.70156872  .00002237  00000-0  66856-3 0  1060
2 33437 049.5721 011.3731 5008847 077.3452 026.0384 05.55984471118456
Epoch (UTC): 29 September 2014 16:50:15
Eccentricity: 0.5008847
inclination: 49.5721°
perigee height: 339 km
apogee height: 13823 km
right ascension of ascending node: 11.3731°
argument of perigee: 77.3452°
revolutions per day: 5.55984471
mean anomaly at epoch: 26.0384°
orbit number at epoch: 11845

The dashed part of the orbit path shows where the satellite is in the earth's shadow,  

DLR